C/2017 T2 ( PanSTARRS )

Japanese version
Home page
Updated on November 7, 2017

---------------------------------------------------------------------

* Profile

Discovery Date October 2, 2017
Magnitude 19.9 mag
Discoverer Pan-STARRS 1 telescope (Haleakala)

* Pictures

* Orbital Elements

Epoch 2020 Apr. 21.0 TT = JDT 2458960.5
T 2020 May 6.23270 TT                                   MPCW
q   1.6171727            (2000.0)            P               Q
z  +0.0010197      Peri.   93.02125     -0.51063784     -0.40566060
 +/-0.0002754      Node    64.40477     -0.16309290     -0.81999188
e   0.9983510      Incl.   57.20018     +0.84418582     -0.40379795
From 80 observations 2017 Sept. 15-Oct. 24, mean residual 0".3.

* Finding Charts

* Magnitudes Graph

        m1 = 5.0 + 5 log d + 10.0 log r

---------------------------------------------------------------------

The orbital elements are published on M.P.E.C. 2017-U180.
The charts are made with StellaNavigator Ver.10 (AstroArts).
The magnitudes graphs are made with Comet for Windows.

---------------------------------------------------------------------

Copyright(C) Seiichi Yoshida (comet@aerith.net). All rights reserved.